| time (UTC) | temp C | wind direction | speed KPH | gust KPH | rain 1hr cm | rain 24hr cm | rain mn cm | humidity % | barometer mb |
| 20260503212031 | 14 | 255 | 4.8 | 9.7 | 0.00 | 0.00 | 0.00 | 70 | 1016.8 |
| 20260503211029 | 14 | 272 | 3.2 | 6.4 | 0.00 | 0.00 | 0.00 | 71 | 1016.8 |
| 20260503210026 | 14 | 284 | 3.2 | 4.8 | 0.00 | 0.00 | 0.00 | 72 | 1016.7 |
| 20260503205023 | 14 | 273 | 1.6 | 4.8 | 0.00 | 0.00 | 0.00 | 70 | 1016.8 |
| 20260503204021 | 15 | 277 | 6.4 | 6.4 | 0.00 | 0.00 | 0.00 | 70 | 1016.7 |
| 20260503203037 | 15 | 267 | 4.8 | 9.7 | 0.00 | 0.00 | 0.00 | 70 | 1016.8 |
| 20260503202034 | 15 | 250 | 1.6 | 3.2 | 0.00 | 0.00 | 0.00 | 69 | 1016.7 |
| 20260503201031 | 15 | 230 | 1.6 | 3.2 | 0.00 | 0.00 | 0.00 | 68 | 1016.8 |
| 20260503200029 | 16 | 243 | 1.6 | 1.6 | 0.00 | 0.00 | 0.00 | 66 | 1016.8 |
| 20260503195026 | 16 | 253 | 1.6 | 1.6 | 0.00 | 0.00 | 0.00 | 66 | 1016.8 |
| 20260503194023 | 16 | 255 | 0.0 | 1.6 | 0.00 | 0.00 | 0.00 | 63 | 1016.7 |
| 20260503193020 | 17 | 256 | 0.0 | 1.6 | 0.00 | 0.00 | 0.00 | 64 | 1016.6 |
| 20260503192017 | 17 | 231 | 1.6 | 3.2 | 0.00 | 0.00 | 0.00 | 61 | 1016.6 |
| 20260503191034 | 17 | 181 | 0.0 | 1.6 | 0.00 | 0.00 | 0.00 | 60 | 1016.5 |
| 20260503190051 | 17 | 182 | 0.0 | 1.6 | 0.00 | 0.00 | 0.00 | 60 | 1016.5 |
| 20260503185030 | 18 | 182 | 0.0 | 0.0 | 0.00 | 0.00 | 0.00 | 58 | 1016.5 |
| 20260503184025 | 18 | 182 | 0.0 | 1.6 | 0.00 | 0.00 | 0.00 | 56 | 1016.3 |
| 20260503183022 | 19 | 153 | 0.0 | 1.6 | 0.00 | 0.00 | 0.00 | 54 | 1016.2 |
| 20260503182019 | 20 | 180 | 1.6 | 3.2 | 0.00 | 0.00 | 0.00 | 51 | 1016.2 |
| 20260503181017 | 20 | 224 | 1.6 | 3.2 | 0.00 | 0.00 | 0.00 | 51 | 1016.2 |
| 20260503180034 | 20 | 212 | 1.6 | 3.2 | 0.00 | 0.00 | 0.00 | 52 | 1016.1 |
| 20260503175051 | 20 | 148 | 0.0 | 1.6 | 0.00 | 0.00 | 0.00 | 53 | 1016.1 |
| 20260503174028 | 20 | 105 | 1.6 | 3.2 | 0.00 | 0.00 | 0.00 | 52 | 1016.1 |
| 20260503173025 | 21 | 114 | 0.0 | 3.2 | 0.00 | 0.00 | 0.00 | 51 | 1016.2 |
| 20260503172022 | 21 | 105 | 1.6 | 4.8 | 0.00 | 0.00 | 0.00 | 50 | 1016.2 |
| 20260503171019 | 21 | 130 | 3.2 | 6.4 | 0.00 | 0.00 | 0.00 | 50 | 1016.3 |
| 20260503131031 | 21 | 102 | 6.4 | 16.1 | 0.00 | 0.00 | 0.00 | 54 | 1018.0 |
| 20260503081043 | 21 | 247 | 6.4 | 12.9 | 0.00 | 0.00 | 0.00 | 40 | 1019.7 |
| 20260503072028 | 18 | 252 | 6.4 | 12.9 | 0.00 | 0.00 | 0.00 | 46 | 1019.7 |
| 20260503071026 | 18 | 244 | 6.4 | 12.9 | 0.00 | 0.00 | 0.00 | 48 | 1019.7 |
| 20260503055022 | 12 | 270 | 6.4 | 12.9 | 0.00 | 0.00 | 0.00 | 63 | 1019.7 |
| 20260503054020 | 12 | 260 | 6.4 | 14.5 | 0.00 | 0.00 | 0.00 | 62 | 1019.7 |
| 20260503053017 | 11 | 260 | 6.4 | 12.9 | 0.00 | 0.00 | 0.00 | 66 | 1019.7 |
| 20260503052034 | 11 | 271 | 6.4 | 11.3 | 0.00 | 0.00 | 0.00 | 69 | 1019.5 |
| 20260503051031 | 10 | 269 | 8.0 | 14.5 | 0.00 | 0.00 | 0.00 | 70 | 1019.6 |
| 20260503050028 | 10 | 276 | 8.0 | 12.9 | 0.00 | 0.00 | 0.00 | 71 | 1019.5 |
| 20260503045025 | 10 | 270 | 6.4 | 11.3 | 0.00 | 0.00 | 0.00 | 72 | 1019.5 |
| 20260503044022 | 10 | 260 | 6.4 | 16.1 | 0.00 | 0.00 | 0.00 | 73 | 1019.5 |
| 20260503043019 | 9 | 259 | 6.4 | 11.3 | 0.00 | 0.00 | 0.00 | 74 | 1019.5 |
| 20260503042016 | 9 | 264 | 3.2 | 6.4 | 0.00 | 0.00 | 0.00 | 75 | 1019.4 |
| 20260503041034 | 9 | 262 | 6.4 | 12.9 | 0.00 | 0.00 | 0.00 | 75 | 1019.5 |
| 20260503040031 | 9 | 261 | 4.8 | 9.7 | 0.00 | 0.00 | 0.00 | 75 | 1019.4 |
| 20260503035028 | 9 | 266 | 4.8 | 11.3 | 0.00 | 0.00 | 0.00 | 76 | 1019.5 |
| 20260503034025 | 9 | 267 | 6.4 | 11.3 | 0.00 | 0.00 | 0.00 | 75 | 1019.4 |
| 20260503033022 | 9 | 260 | 6.4 | 12.9 | 0.00 | 0.00 | 0.00 | 76 | 1019.4 |
| 20260503032039 | 9 | 272 | 9.7 | 14.5 | 0.00 | 0.00 | 0.00 | 76 | 1019.4 |
| 20260503031016 | 9 | 266 | 8.0 | 12.9 | 0.00 | 0.00 | 0.00 | 76 | 1019.5 |
| 20260503030033 | 8 | 265 | 8.0 | 12.9 | 0.00 | 0.00 | 0.00 | 77 | 1019.5 |
| 20260503025030 | 9 | 268 | 8.0 | 12.9 | 0.00 | 0.00 | 0.00 | 77 | 1019.5 |
| 20260503024027 | 9 | 263 | 8.0 | 14.5 | 0.00 | 0.00 | 0.00 | 76 | 1019.6 |
| 20260503023025 | 9 | 264 | 6.4 | 11.3 | 0.00 | 0.00 | 0.00 | 77 | 1019.7 |
| 20260503022022 | 8 | 266 | 6.4 | 11.3 | 0.00 | 0.00 | 0.00 | 78 | 1019.8 |
| 20260503021019 | 8 | 272 | 8.0 | 12.9 | 0.00 | 0.00 | 0.00 | 77 | 1019.8 |
| 20260503020016 | 8 | 265 | 8.0 | 12.9 | 0.00 | 0.00 | 0.00 | 78 | 1019.7 |
| 20260503015033 | 8 | 263 | 8.0 | 12.9 | 0.00 | 0.00 | 0.00 | 77 | 1019.8 |
| 20260503014030 | 8 | 267 | 8.0 | 12.9 | 0.00 | 0.00 | 0.00 | 78 | 1019.8 |
| 20260503013027 | 8 | 267 | 8.0 | 11.3 | 0.00 | 0.00 | 0.00 | 78 | 1019.8 |
| 20260503012025 | 9 | 263 | 8.0 | 12.9 | 0.00 | 0.00 | 0.00 | 77 | 1020.0 |
| 20260503011021 | 8 | 265 | 8.0 | 12.9 | 0.00 | 0.00 | 0.00 | 77 | 1020.0 |
| 20260503010019 | 9 | 263 | 6.4 | 11.3 | 0.00 | 0.00 | 0.00 | 76 | 1020.1 |
| 20260503005056 | 9 | 255 | 8.0 | 11.3 | 0.00 | 0.00 | 0.00 | 77 | 1020.2 |
| 20260503004033 | 9 | 262 | 6.4 | 11.3 | 0.00 | 0.00 | 0.00 | 77 | 1020.3 |
| 20260503003030 | 9 | 250 | 6.4 | 11.3 | 0.00 | 0.00 | 0.00 | 76 | 1020.4 |
| 20260503002027 | 9 | 260 | 6.4 | 11.3 | 0.00 | 0.00 | 0.00 | 75 | 1020.4 |
| 20260503001024 | 9 | 265 | 6.4 | 11.3 | 0.00 | 0.00 | 0.00 | 76 | 1020.6 |
| 20260503000021 | 10 | 263 | 6.4 | 9.7 | 0.00 | 0.00 | 0.00 | 74 | 1020.6 |
| 20260502235018 | 10 | 269 | 6.4 | 11.3 | 0.00 | 0.00 | 0.00 | 75 | 1020.7 |
| 20260502234035 | 10 | 264 | 6.4 | 11.3 | 0.00 | 0.00 | 0.00 | 75 | 1020.8 |
| 20260502233054 | 10 | 260 | 6.4 | 14.5 | 0.00 | 0.00 | 0.00 | 75 | 1020.8 |
| 20260502232050 | 10 | 262 | 6.4 | 9.7 | 0.00 | 0.00 | 0.00 | 74 | 1020.9 |
| 20260502231026 | 10 | 262 | 6.4 | 9.7 | 0.00 | 0.00 | 0.00 | 73 | 1021.0 |
| 20260502230024 | 10 | 258 | 4.8 | 11.3 | 0.00 | 0.00 | 0.00 | 73 | 1021.0 |
| 20260502225021 | 10 | 261 | 6.4 | 11.3 | 0.00 | 0.00 | 0.00 | 72 | 1021.2 |
| 20260502224018 | 10 | 259 | 4.8 | 9.7 | 0.00 | 0.00 | 0.00 | 71 | 1021.3 |
| 20260502223035 | 10 | 257 | 6.4 | 11.3 | 0.00 | 0.00 | 0.00 | 71 | 1021.3 |
| 20260502222032 | 10 | 260 | 4.8 | 11.3 | 0.00 | 0.00 | 0.00 | 71 | 1021.4 |
| 20260502221029 | 10 | 263 | 6.4 | 9.7 | 0.00 | 0.00 | 0.00 | 71 | 1021.3 |
| 20260502220026 | 11 | 265 | 4.8 | 6.4 | 0.00 | 0.00 | 0.00 | 71 | 1021.4 |
| 20260502215024 | 11 | 276 | 3.2 | 4.8 | 0.00 | 0.00 | 0.00 | 69 | 1021.4 |
| 20260502214021 | 11 | 259 | 3.2 | 6.4 | 0.00 | 0.00 | 0.00 | 69 | 1021.5 |
| 20260502213038 | 11 | 268 | 8.0 | 11.3 | 0.00 | 0.00 | 0.00 | 68 | 1021.5 |